M0NPQ Weather Reports


Display with metric or nautical units.
time (UTC)temp
F
wind
direction
speed
MPH
gust
MPH
rain 1hr
in
rain 24hr
in
rain mn
in
humidity
%
barometer
mb
20260508002704 51 253 0.0 1.0 0.00 0.00 0.00 84 1016.7
20260508001803 51 261 0.0 1.0 0.00 0.00 0.00 84 1016.8
20260508000903 51 266 0.0 2.0 0.00 0.00 0.00 84 1016.9
20260508000005 51 254 0.0 2.0 0.00 0.00 0.00 84 1017.0
20260507235403 51 258 0.0 2.0 0.00 0.00 0.00 84 1016.8
20260507234503 51 264 1.0 2.0 0.00 0.00 0.00 84 1017.1
20260507233603 51 257 0.0 2.0 0.00 0.00 0.00 83 1017.1
20260507232703 51 259 0.0 2.0 0.00 0.00 0.00 83 1017.1
20260507231803 51 262 1.0 2.0 0.00 0.00 0.00 83 1017.3
20260507230904 51 259 0.0 2.0 0.00 0.00 0.00 83 1017.1
20260507230005 51 264 1.0 2.0 0.00 0.00 0.00 83 1017.1
20260507225618 51 260 0.0 2.0 0.00 0.00 0.00 83 1017.3
20260507224719 51 257 0.0 3.0 0.00 0.00 0.00 82 1017.3
20260507223603 51 263 1.0 2.0 0.00 0.00 0.00 82 1017.2
20260507222918 51 261 0.0 2.0 0.00 0.00 0.00 82 1017.2
20260507221803 51 257 1.0 2.0 0.00 0.00 0.00 82 1017.3
20260507220903 51 258 1.0 6.0 0.00 0.00 0.00 82 1017.2
20260507220004 51 262 1.0 2.0 0.00 0.00 0.00 82 1017.1
20260507215617 51 261 1.0 3.0 0.00 0.00 0.00 81 1017.3
20260507214716 51 261 1.0 3.0 0.00 0.00 0.00 82 1017.5
20260507213818 51 258 0.0 2.0 0.00 0.00 0.00 82 1017.3
20260507212703 51 258 0.0 2.0 0.00 0.00 0.00 82 1017.4
20260507211803 51 252 1.0 3.0 0.00 0.00 0.00 82 1017.2
20260507210903 51 250 0.0 3.0 0.00 0.00 0.00 82 1017.5
20260507210217 51 257 1.0 3.0 0.00 0.00 0.00 82 1017.3
20260507205403 51 260 1.0 2.0 0.00 0.00 0.00 82 1017.3
20260507204718 51 259 1.0 3.0 0.00 0.00 0.00 82 1017.3
20260507203604 51 256 0.0 2.0 0.00 0.00 0.00 81 1017.2
20260507202703 51 262 0.0 3.0 0.00 0.00 0.00 81 1016.9
20260507201803 51 255 0.0 3.0 0.00 0.00 0.00 81 1017.0
20260507200903 51 252 1.0 3.0 0.00 0.00 0.00 81 1017.0
20260507200221 51 255 1.0 4.0 0.00 0.00 0.00 80 1016.8
20260507195616 51 253 0.0 3.0 0.00 0.00 0.00 80 1016.6
20260507194503 51 250 0.0 2.0 0.00 0.00 0.00 79 1016.8
20260507193605 51 256 0.0 2.0 0.00 0.00 0.00 79 1016.8
20260507192703 51 250 0.0 3.0 0.00 0.00 0.00 79 1016.4
20260507192018 51 85 0.0 2.0 0.00 0.00 0.00 78 1016.7
20260507190903 51 245 0.0 3.0 0.00 0.00 0.00 78 1016.5
20260507190004 51 240 1.0 3.0 0.00 0.00 0.00 77 1016.7
20260507185403 51 248 1.0 3.0 0.00 0.00 0.00 76 1016.7
20260507184503 51 235 0.0 2.0 0.00 0.00 0.00 77 1016.6
20260507183604 52 236 1.0 4.0 0.00 0.00 0.00 76 1016.6
20260507182703 52 112 1.0 3.0 0.00 0.00 0.00 76 1016.5
20260507181803 52 271 1.0 4.0 0.00 0.00 0.00 75 1016.3
20260507181117 52 85 1.0 3.0 0.00 0.00 0.00 75 1016.4
20260507180003 52 260 1.0 3.0 0.00 0.00 0.00 75 1016.4
20260507175404 52 230 1.0 4.0 0.00 0.00 0.00 74 1016.6
20260507174503 52 258 1.0 4.0 0.00 0.00 0.00 73 1016.4
20260507173603 53 191 0.0 4.0 0.00 0.00 0.00 73 1016.5
20260507172703 53 77 1.0 2.0 0.00 0.00 0.00 73 1016.5
20260507171803 53 74 1.0 3.0 0.00 0.00 0.00 72 1016.4
20260507170903 53 71 1.0 3.0 0.00 0.00 0.00 72 1016.3
20260507170003 53 243 1.0 3.0 0.00 0.00 0.00 71 1016.4
20260507165403 53 89 0.0 2.0 0.00 0.00 0.00 70 1016.6
20260507164504 54 91 1.0 2.0 0.00 0.00 0.00 69 1016.4
20260507163603 54 70 1.0 3.0 0.00 0.00 0.00 69 1016.7
20260507162703 54 82 1.0 3.0 0.00 0.00 0.00 69 1016.6
20260507161803 54 147 1.0 3.0 0.00 0.00 0.00 67 1016.5
20260507161118 54 95 1.0 4.0 0.00 0.00 0.00 67 1016.8
20260507160219 54 73 1.0 3.0 0.00 0.00 0.00 66 1016.6
20260507155403 56 77 1.0 6.0 0.00 0.00 0.00 64 1016.6
20260507154504 57 26 1.0 6.0 0.00 0.00 0.00 60 1016.5
20260507153604 58 211 1.0 6.0 0.00 0.00 0.00 59 1016.5
20260507152703 58 90 1.0 4.0 0.00 0.00 0.00 59 1016.8
20260507151805 58 255 1.0 4.0 0.00 0.00 0.00 59 1016.7
20260507151118 59 281 1.0 4.0 0.00 0.00 0.00 57 1016.6
20260507150003 58 87 1.0 4.0 0.00 0.00 0.00 59 1016.6
20260507145403 58 256 1.0 4.0 0.00 0.00 0.00 60 1016.7
20260507144505 59 83 1.0 4.0 0.00 0.00 0.00 56 1016.8
20260507143817 59 71 1.0 7.0 0.00 0.00 0.00 58 1016.9
20260507142919 58 90 1.0 4.0 0.00 0.00 0.00 59 1016.7
20260507142018 59 327 1.0 3.0 0.00 0.00 0.00 57 1016.8
20260507140903 59 253 1.0 3.0 0.00 0.00 0.00 58 1016.9
20260507140003 57 237 1.0 4.0 0.00 0.00 0.00 59 1017.0
20260507135618 57 257 1.0 4.0 0.00 0.00 0.00 60 1017.0
20260507134505 57 250 1.0 4.0 0.00 0.00 0.00 61 1017.0
20260507133603 57 245 1.0 3.0 0.00 0.00 0.00 60 1017.0
20260507132703 57 267 1.0 6.0 0.00 0.00 0.00 60 1017.0
20260507131803 58 264 1.0 4.0 0.00 0.00 0.00 58 1017.1
20260507130903 58 260 1.0 4.0 0.00 0.00 0.00 57 1017.2
20260507130003 58 320 1.0 4.0 0.00 0.00 0.00 56 1017.1
20260507125403 59 71 0.0 2.0 0.00 0.00 0.00 56 1017.0
20260507124719 58 57 1.0 4.0 0.00 0.00 0.00 57 1016.9
20260507123603 57 259 1.0 4.0 0.00 0.00 0.00 59 1016.9
20260507122705 58 111 1.0 3.0 0.00 0.00 0.00 56 1016.8
20260507121805 58 123 1.0 4.0 0.00 0.00 0.00 57 1017.0
20260507120903 57 263 1.0 4.0 0.00 0.00 0.00 58 1017.1
20260507120003 57 248 1.0 3.0 0.00 0.00 0.00 59 1017.0
20260507115404 56 244 1.0 6.0 0.00 0.00 0.00 59 1016.9
20260507114503 56 262 1.0 4.0 0.00 0.00 0.00 60 1017.1
20260507113603 57 271 1.0 6.0 0.00 0.00 0.00 59 1017.1
20260507112703 57 172 1.0 3.0 0.00 0.00 0.00 58 1017.1
20260507112017 57 332 1.0 4.0 0.00 0.00 0.00 59 1017.1
20260507110904 55 261 1.0 3.0 0.00 0.00 0.00 62 1017.2
20260507110003 55 221 1.0 4.0 0.00 0.00 0.00 62 1017.2
20260507105403 55 272 1.0 4.0 0.00 0.00 0.00 63 1017.2
20260507104503 56 52 0.0 3.0 0.00 0.00 0.00 62 1017.2
20260507103603 55 244 1.0 3.0 0.00 0.00 0.00 63 1017.2
20260507102917 55 256 1.0 3.0 0.00 0.00 0.00 62 1017.4
20260507101804 54 262 0.0 2.0 0.00 0.00 0.00 65 1017.1
20260507101120 54 278 1.0 2.0 0.00 0.00 0.00 64 1017.1
20260507100003 54 291 0.0 2.0 0.00 0.00 0.00 64 1017.1
20260507095403 54 27 0.0 2.0 0.00 0.00 0.00 64 1017.0
20260507094503 54 110 0.0 2.0 0.00 0.00 0.00 65 1017.0
20260507093603 53 105 0.0 2.0 0.00 0.00 0.00 65 1017.2
20260507092703 53 251 0.0 2.0 0.00 0.00 0.00 66 1017.1
20260507091803 53 257 0.0 2.0 0.00 0.00 0.00 66 1016.9
20260507090903 53 251 0.0 2.0 0.00 0.00 0.00 65 1017.1
20260507090004 53 272 0.0 2.0 0.00 0.00 0.00 65 1016.9
20260507085616 54 266 0.0 2.0 0.00 0.00 0.00 64 1016.8
20260507084503 54 252 0.0 2.0 0.00 0.00 0.00 64 1016.8
20260507083603 53 261 0.0 1.0 0.00 0.00 0.00 66 1016.7
20260507082704 53 101 0.0 2.0 0.00 0.00 0.00 65 1016.7
20260507081804 53 208 0.0 2.0 0.00 0.00 0.00 66 1016.6
20260507080903 52 265 0.0 1.0 0.00 0.00 0.00 67 1016.5
20260507080005 52 266 0.0 1.0 0.00 0.00 0.00 68 1016.5
20260507075403 52 0 0.0 0.0 0.00 0.00 0.00 69 1016.5
20260507074503 52 272 0.0 1.0 0.00 0.00 0.00 68 1016.5
20260507073603 52 0 0.0 0.0 0.00 0.00 0.00 67 1016.3
20260507072705 52 0 0.0 0.0 0.00 0.00 0.00 68 1016.3
20260507071803 51 0 0.0 0.0 0.00 0.00 0.00 67 1016.1
20260507070903 51 265 0.0 1.0 0.00 0.00 0.00 67 1016.1
20260507070005 51 11 0.0 1.0 0.00 0.00 0.00 68 1016.2
20260507065403 51 282 0.0 1.0 0.00 0.00 0.00 68 1016.3
20260507064719 51 86 0.0 1.0 0.00 0.00 0.00 69 1016.1
20260507063603 51 0 0.0 0.0 0.00 0.00 0.00 69 1016.1
20260507062703 50 261 0.0 2.0 0.00 0.00 0.00 70 1016.2
20260507062017 50 209 0.0 2.0 0.00 0.00 0.00 71 1016.1
20260507060903 50 241 0.0 1.0 0.00 0.00 0.00 70 1015.9
20260507060004 50 0 0.0 0.0 0.00 0.00 0.00 71 1016.0
20260507055404 49 233 0.0 1.0 0.00 0.00 0.00 72 1015.9
20260507054505 49 0 0.0 0.0 0.00 0.00 0.00 72 1015.9
20260507053603 49 0 0.0 0.0 0.00 0.00 0.00 73 1016.0
20260507052703 49 0 0.0 0.0 0.00 0.00 0.00 73 1015.9
20260507051803 49 0 0.0 0.0 0.00 0.00 0.00 73 1015.8
20260507050903 49 0 0.0 0.0 0.00 0.00 0.00 73 1015.7
20260507050217 49 0 0.0 0.0 0.00 0.00 0.00 73 1015.9
20260507045403 49 0 0.0 0.0 0.00 0.00 0.00 73 1015.7
20260507044503 49 0 0.0 0.0 0.00 0.00 0.00 74 1015.6
20260507043603 48 0 0.0 0.0 0.00 0.00 0.00 74 1015.5
20260507042705 48 0 0.0 0.0 0.00 0.00 0.00 74 1015.5
20260507041805 48 0 0.0 0.0 0.00 0.00 0.00 74 1015.4
20260507040903 48 262 0.0 1.0 0.00 0.00 0.00 74 1015.3
20260507040005 48 0 0.0 0.0 0.00 0.00 0.00 74 1015.3
20260507035403 48 249 0.0 1.0 0.00 0.00 0.00 74 1015.3
20260507034503 48 0 0.0 0.0 0.00 0.00 0.00 73 1015.1
20260507033603 48 0 0.0 0.0 0.00 0.00 0.00 73 1014.9
20260507032704 48 0 0.0 0.0 0.00 0.00 0.00 73 1015.1
20260507032018 48 0 0.0 0.0 0.00 0.00 0.00 73 1015.1
20260507030903 48 0 0.0 1.0 0.00 0.00 0.00 72 1015.0
20260507030003 49 122 0.0 1.0 0.00 0.00 0.00 72 1014.9
20260507025404 49 228 0.0 1.0 0.00 0.00 0.00 72 1015.0
20260507024503 49 228 0.0 1.0 0.00 0.00 0.00 72 1015.2
20260507023603 49 0 0.0 0.0 0.00 0.00 0.00 73 1015.2
20260507022704 49 100 0.0 1.0 0.00 0.00 0.00 72 1015.1
20260507021805 49 0 0.0 0.0 0.00 0.00 0.00 72 1015.1
20260507020903 49 0 0.0 0.0 0.00 0.00 0.00 72 1015.2
20260507020218 49 0 0.0 0.0 0.00 0.00 0.00 72 1015.2
20260507015403 49 111 0.0 1.0 0.00 0.00 0.00 72 1015.2
20260507014503 49 282 0.0 1.0 0.00 0.00 0.00 72 1014.8
20260507013816 49 268 0.0 1.0 0.00 0.00 0.00 72 1015.0
20260507012703 49 0 0.0 0.0 0.00 0.00 0.00 72 1015.1
20260507011804 49 0 0.0 0.0 0.00 0.00 0.00 72 1015.0
20260507010903 49 0 0.0 0.0 0.00 0.00 0.00 72 1015.1
20260507010003 49 0 0.0 0.0 0.00 0.00 0.00 72 1014.8
20260507005404 49 275 0.0 1.0 0.00 0.00 0.00 73 1014.9
20260507004717 49 0 0.0 0.0 0.00 0.00 0.00 73 1014.9
20260507003603 49 270 0.0 1.0 0.00 0.00 0.00 72 1014.9